Starlink 5774

operational
NORAD ID: 56029 Int'l Des: 2023-042 Owner: SPXS Country: US Constellation: starlink
LEOCIRCULAR

About Starlink 5774

Description loading...

Live Position

Loading 3D Globe...

Upcoming Passes

Altitude History

Altitude vs Time

uPlot chart will show altitude changes over time

Two-Line Element Set

1 56029U 23042AV 25354.60282070 .00000432 00000-0 47018-4 0 9990
2 56029 43.0035 112.8312 0001327 268.8788 91.1902 15.02537618151161
Epoch: Dec 20, 2025 • Age: 12 hours

Current Status

Altitude 570.9 km
Velocity 7.58 km/s
Sub-Earth Point -41.56°S, 130.45°W
Launch Date Mar 24, 2023
Age 2.7 years
Type internet

Technical Details

Classification Payload
Mass 305.00 kg
Dry Mass 290.00 kg
Total Mass 305.00 kg
Length 0.20 m
Diameter 2.80 m
Span 9.00 m
Shape Box + pan
Manufacturer SPXS
Bus Type Starlink
Phase Status In Orbit
Owner/State SPXS/US

Large Constellations

Loading constellations...